GW1540 Weather Reports


time (UTC)temp
C
wind
direction
speed
KPH
gust
KPH
rain 1hr
cm
rain 24hr
cm
rain mn
cm
humidity
%
barometer
mb
20260504050200 0 246 0.0 0.0 0.00 0.00 0.00 93 1018.7
20260504043220 0 246 0.0 0.0 0.00 0.00 0.00 92 1018.5
20260504041644 1 246 0.0 0.0 0.00 0.00 0.00 91 1018.5
20260504034721 1 246 0.0 0.0 0.00 0.00 0.00 90 1018.6
20260504033148 2 246 0.0 0.0 0.00 0.00 0.00 90 1018.5
20260504030158 3 246 0.0 0.0 0.00 0.00 0.00 91 1018.6
20260504024657 3 246 0.0 0.0 0.00 0.00 0.00 90 1018.7
20260504021719 4 246 0.0 0.0 0.00 0.00 0.00 92 1018.8
20260504014715 5 246 0.0 0.0 0.00 0.00 0.00 92 1018.9
20260504013159 5 246 0.0 0.0 0.00 0.00 0.00 92 1018.9
20260504010210 5 246 0.0 0.0 0.00 0.00 0.00 91 1019.1
20260504004648 5 246 0.0 0.0 0.00 0.00 0.00 91 1019.2
20260504001714 5 246 0.0 0.0 0.00 0.00 0.00 93 1019.4
20260503234718 4 246 0.0 0.0 0.00 0.00 0.00 92 1019.5
20260503233157 4 246 0.0 0.0 0.00 0.00 0.00 91 1019.6
20260503231656 4 246 0.0 0.0 0.00 0.00 0.00 92 1019.7
20260503230146 4 246 0.0 0.0 0.00 0.00 0.00 91 1019.9
20260503223217 4 246 0.0 0.0 0.00 0.00 0.00 89 1020.1
20260503220249 4 246 0.0 0.0 0.00 0.00 0.00 89 1020.0
20260503214708 4 246 0.0 0.0 0.00 0.00 0.00 89 1019.9
20260503213154 5 246 0.0 0.0 0.00 0.00 0.00 89 1019.9
20260503210219 5 246 0.0 0.0 0.00 0.00 0.00 86 1020.0
20260503203210 6 246 0.0 0.0 0.00 0.00 0.00 84 1020.0
20260503200210 8 246 0.0 3.2 0.00 0.00 0.00 78 1019.8
20260503193216 10 246 1.6 4.8 0.00 0.00 0.00 74 1019.4
20260503190204 11 246 1.6 4.8 0.00 0.00 0.00 70 1019.4
20260503183211 11 246 1.6 4.8 0.00 0.00 0.00 73 1019.3
20260503181646 12 246 1.6 4.8 0.00 0.00 0.00 70 1019.0
20260503174710 13 252 1.6 3.2 0.00 0.00 0.00 66 1019.1
20260503173157 15 257 1.6 6.4 0.00 0.00 0.00 59 1019.1
20260503170200 16 278 1.6 4.8 0.00 0.00 0.00 54 1019.2
20260503150206 16 190 1.6 12.9 0.00 0.00 0.00 49 1020.0
20260503140206 17 81 3.2 12.9 0.00 0.00 0.00 50 1020.0
20260503120208 17 172 1.6 12.9 0.00 0.00 0.00 54 1020.4
20260503110205 16 38 3.2 12.9 0.00 0.00 0.00 52 1020.5
20260503100155 16 304 3.2 12.9 0.00 0.00 0.00 49 1020.7
20260503071719 12 219 0.0 1.6 0.00 0.00 0.00 74 1021.2
20260503054708 1 219 0.0 0.0 0.00 0.00 0.00 94 1021.7